TimeCDT,TemperatureF,Dew PointF,Humidity,Sea Level PressureIn,VisibilityMPH,Wind Direction,Wind SpeedMPH,Gust SpeedMPH,PrecipitationIn,Events,Conditions,WindDirDegrees,DateUTC
12:58 AM,53.4,49.3,86,29.90,10.0,NW,3.5,-,N/A,,Clear,310,2013-11-01 05:58:00
1:58 AM,53.2,49.3,86,29.89,10.0,NNW,4.6,-,N/A,,Clear,330,2013-11-01 06:58:00
2:58 AM,52.5,50.2,92,29.88,10.0,NW,2.3,-,N/A,,Clear,310,2013-11-01 07:58:00
3:58 AM,50.2,49.8,99,29.87,10.0,Calm,Calm,-,N/A,,Clear,0,2013-11-01 08:58:00
4:58 AM,48.9,48.9,100,29.87,10.0,East,2.3,-,N/A,,Clear,100,2013-11-01 09:58:00
5:58 AM,47.3,47.3,100,29.88,10.0,SSE,4.6,-,N/A,,Clear,160,2013-11-01 10:58:00
6:58 AM,46.9,46.9,100,29.89,10.0,SSE,5.8,-,N/A,,Clear,150,2013-11-01 11:58:00
7:08 AM,46.4,46.4,100,29.87,6.0,SSE,5.8,-,N/A,,Clear,150,2013-11-01 12:08:00
7:18 AM,46.4,46.4,100,29.87,10.0,SSE,4.6,-,N/A,,Clear,150,2013-11-01 12:18:00
7:58 AM,47.8,47.8,100,29.90,10.0,South,4.6,-,N/A,,Clear,180,2013-11-01 12:58:00
8:58 AM,54.5,52.3,92,29.92,10.0,SSE,1.2,-,N/A,,Clear,160,2013-11-01 13:58:00
9:58 AM,60.8,51.3,71,29.93,10.0,South,4.6,-,N/A,,Clear,180,2013-11-01 14:58:00
10:58 AM,66.0,50.4,57,29.94,10.0,SSW,3.5,-,N/A,,Clear,200,2013-11-01 15:58:00
11:58 AM,70.5,49.6,47,29.94,10.0,WSW,3.5,-,N/A,,Clear,250,2013-11-01 16:58:00
12:58 PM,72.7,45.0,37,29.92,10.0,SW,6.9,-,N/A,,Clear,230,2013-11-01 17:58:00
1:58 PM,73.8,45.5,36,29.89,10.0,South,5.8,-,N/A,,Clear,190,2013-11-01 18:58:00
2:58 PM,74.8,44.2,33,29.87,10.0,South,3.5,-,N/A,,Clear,190,2013-11-01 19:58:00
3:58 PM,74.5,43.5,33,29.86,10.0,NW,1.2,-,N/A,,Clear,320,2013-11-01 20:58:00
4:58 PM,74.5,44.2,34,29.86,10.0,Variable,1.2,-,N/A,,Clear,0,2013-11-01 21:58:00
5:58 PM,69.6,50.5,51,29.87,10.0,SE,4.6,-,N/A,,Clear,140,2013-11-01 22:58:00
6:58 PM,63.1,54.1,72,29.88,10.0,East,4.6,-,N/A,,Clear,100,2013-11-01 23:58:00
7:58 PM,60.6,55.2,82,29.92,10.0,NW,1.2,-,N/A,,Clear,310,2013-11-02 00:58:00
8:58 PM,57.4,53.1,85,29.95,10.0,Calm,Calm,-,N/A,,Clear,0,2013-11-02 01:58:00
9:58 PM,56.5,54.7,94,29.96,10.0,Calm,Calm,-,N/A,,Clear,0,2013-11-02 02:58:00
10:58 PM,56.8,54.3,91,29.98,10.0,Calm,Calm,-,N/A,,Overcast,0,2013-11-02 03:58:00
11:58 PM,56.7,54.9,94,29.98,10.0,South,2.3,-,N/A,,Overcast,190,2013-11-02 04:58:00